Location: Bluff Heights
(33.7692°N, 118.1592°W)
Time: 13:27:20
(UTC+00:00)

S-56A Canister/Altair - Pass Details

Date: 25 July 2021
Orbit: 632 x 2500 km, 38.9° (Epoch: 25 September)

Event Time Altitude Azimuth Distance (km) Brightness Sun altitude
Rises 07:34:00 0° 292° (WNW) 5,572 12.3 -36.3°
Reaches altitude 10° 07:38:23 10° 285° (WNW) 4,289 11.5 -36.4°
Enters shadow 07:44:48 30° 259° (W) 2,581 10.0 -36.5°
